Weather History for 94368 - April, 2014

Change the Weather History Date:

Monday, April 21, 2014

  Actual Average Record
Temperature  
Mean Temperature 77 °F -  
Max Temperature 80 °F - - ()
Min Temperature 74 °F - - ()
Cooling Degree Days 12    
Growing Degree Days 27 (Base 50)    
Moisture  
Dew Point 63 °F    
Average Humidity 60    
Maximum Humidity 74    
Minimum Humidity 44    
Precipitation  
Precipitation 0.00 in - - ()
Sea Level Pressure  
Sea Level Pressure 30.04 in    
Wind  
Wind Speed 16 mph ()    
Max Wind Speed 23 mph    
Max Gust Speed -    
Visibility 6.2 miles    
Events      
T = Trace of Precipitation, MM = Missing Value Source: Averaged Metar Reports

Daily Weather History Graph

Daily Weather History Graph

Search for Another Location

Airport or City:

Trip Planner

Search our weather history database for the weather conditions in past years. The results will help you decide how hot, cold, wet, or windy it might be!

Date:

Astronomy

Apr. 21, 2014 Rise Set
Actual Time 6:17 AM AEST 5:48 PM AEST
Civil Twilight 5:54 AM AEST 6:11 PM AEST
Nautical Twilight 5:28 AM AEST 6:37 PM AEST
Astronomical Twilight 5:02 AM AEST 7:02 PM AEST
Moon 11:08 PM AEST (4/21) 11:33 AM AEST (4/21)
Length of Visible Light 12h 16m
Length of Day
11h 31m
Waning Gibbous, 64% of the Moon is Illuminated
Apr 21
Waning Gibbous
Apr 22
Last Quarter
Apr 29
New
May 7
First Quarter
May 15
Full

Hourly Weather History & Observations

Time (AEST) Temp. Heat Index Dew Point Humidity Pressure Visibility Wind Dir Wind Speed Gust Speed Precip Events Conditions
12:00 AM 76 °F - 61 °F 51% 30.04 in - ESE 15.0 mph - -  
12:00 AM 77.0 °F - 60.8 °F 57% 30.04 in 6.2 mi ESE 15.0 mph - N/A   Scattered Clouds
12:30 AM 75.2 °F - 62.6 °F 65% 30.04 in 6.2 mi ESE 13.8 mph - N/A   Scattered Clouds
1:00 AM 75.2 °F - 60.8 °F 61% 30.04 in 6.2 mi ESE 13.8 mph - N/A   Scattered Clouds
1:30 AM 75.2 °F - 62.6 °F 65% 30.01 in 6.2 mi ESE 15.0 mph - N/A   Unknown
2:00 AM 75.2 °F - 62.6 °F 65% 30.01 in 6.2 mi ESE 13.8 mph - N/A   Scattered Clouds
2:30 AM 75.2 °F - 62.6 °F 65% 30.01 in 6.2 mi ESE 15.0 mph - N/A   Scattered Clouds
3:00 AM 75 °F - 62 °F 54% 30.01 in - ESE 15.0 mph - -  
3:00 AM 75.2 °F - 62.6 °F 65% 30.01 in 6.2 mi ESE 15.0 mph - N/A   Scattered Clouds
3:30 AM 75.2 °F - 60.8 °F 61% 30.01 in 6.2 mi ESE 13.8 mph - N/A   Scattered Clouds
4:00 AM 75.2 °F - 60.8 °F 61% 30.01 in - ESE 15.0 mph - N/A   Scattered Clouds
4:30 AM 75.2 °F - 62.6 °F 65% 30.01 in 6.2 mi ESE 16.1 mph - N/A   Scattered Clouds
5:00 AM 75.2 °F - 62.6 °F 65% 30.01 in 6.2 mi ESE 16.1 mph - N/A   Scattered Clouds
5:30 AM 75.2 °F - 60.8 °F 61% 30.01 in 6.2 mi ESE 15.0 mph - N/A   Scattered Clouds
6:00 AM 75 °F - 63 °F 58% 30.03 in - ESE 13.8 mph - -  
6:00 AM 75.2 °F - 62.6 °F 65% 30.01 in 6.2 mi ESE 13.8 mph - N/A   Scattered Clouds
6:30 AM 75.2 °F - 60.8 °F 61% 30.04 in 6.2 mi East 18.4 mph - N/A   Scattered Clouds
7:00 AM 77.0 °F - 60.8 °F 57% 30.04 in 6.2 mi East 19.6 mph - N/A   Unknown
7:30 AM 77.0 °F - 60.8 °F 57% 30.04 in 6.2 mi ESE 18.4 mph - N/A   Unknown
8:00 AM 77.0 °F - 60.8 °F 57% 30.06 in 6.2 mi East 19.6 mph - N/A   Scattered Clouds
8:30 AM 77.0 °F - 60.8 °F 57% 30.06 in 6.2 mi ESE 19.6 mph - N/A   Unknown
9:00 AM 77 °F - 62 °F 50% 30.07 in - ESE 19.6 mph - -  
9:00 AM 77.0 °F - 62.6 °F 61% 30.06 in 6.2 mi ESE 19.6 mph - N/A   Scattered Clouds
9:30 AM 77.0 °F - 62.6 °F 61% 30.06 in 6.2 mi ESE 17.3 mph - N/A   Overcast
10:00 AM 78.8 °F - 62.6 °F 57% 30.06 in 6.2 mi East 23.0 mph - N/A   Mostly Cloudy
10:30 AM 78.8 °F - 62.6 °F 57% 30.06 in 6.2 mi East 20.7 mph - N/A   Unknown
11:00 AM 78.8 °F - 62.6 °F 57% 30.06 in 6.2 mi East 19.6 mph - N/A   Scattered Clouds
11:30 AM 80.6 °F 81.5 °F 60.8 °F 51% 30.04 in 6.2 mi ESE 19.6 mph - N/A   Unknown
12:00 PM 80 °F - 62 °F 44% 30.04 in - ESE 18.4 mph - -  
12:00 PM 80.6 °F 81.8 °F 62.6 °F 54% 30.04 in 6.2 mi ESE 18.4 mph - N/A   Unknown
12:30 PM 80.6 °F 82.3 °F 64.4 °F 58% 30.04 in 6.2 mi ESE 18.4 mph - N/A   Unknown
1:00 PM 80.6 °F 82.3 °F 64.4 °F 58% 30.01 in 6.2 mi ESE 19.6 mph - N/A   Scattered Clouds
1:30 PM 78.8 °F - 66.2 °F 65% 30.01 in 6.2 mi ESE 20.7 mph - N/A   Mostly Cloudy
2:00 PM 78.8 °F - 62.6 °F 57% 30.01 in 6.2 mi ESE 21.9 mph - N/A   Mostly Cloudy
2:30 PM 78.8 °F - 64.4 °F 61% 30.01 in 6.2 mi ESE 20.7 mph - N/A   Mostly Cloudy
3:00 PM 79 °F - 63 °F 49% 30.01 in - ESE 23.0 mph - -  
3:00 PM 78.8 °F - 62.6 °F 57% 30.01 in 6.2 mi ESE 23.0 mph - N/A   Scattered Clouds
3:30 PM 78.8 °F - 64.4 °F 61% 30.01 in 6.2 mi ESE 21.9 mph - N/A   Mostly Cloudy
4:00 PM 78.8 °F - 62.6 °F 57% 30.01 in 6.2 mi ESE 23.0 mph - N/A   Scattered Clouds
4:30 PM 77.0 °F - 64.4 °F 65% 30.01 in 6.2 mi ESE 23.0 mph - N/A   Scattered Clouds
5:00 PM 77.0 °F - 64.4 °F 65% 30.01 in 6.2 mi ESE 21.9 mph - N/A   Mostly Cloudy
5:30 PM 77.0 °F - 64.4 °F 65% 30.04 in 6.2 mi ESE 20.7 mph - N/A   Scattered Clouds
6:00 PM 77 °F - 63 °F 53% 30.04 in - ESE 21.9 mph - -  
6:00 PM 77.0 °F - 62.6 °F 61% 30.04 in 6.2 mi ESE 21.9 mph - N/A   Mostly Cloudy
6:30 PM 77.0 °F - 62.6 °F 61% 30.04 in 6.2 mi ESE 21.9 mph - N/A   Scattered Clouds
7:00 PM 77.0 °F - 60.8 °F 57% 30.06 in 6.2 mi ESE 20.7 mph - N/A   Unknown
7:30 PM 77.0 °F - 60.8 °F 57% 30.06 in 6.2 mi East 20.7 mph - N/A   Scattered Clouds
8:00 PM 77.0 °F - 62.6 °F 61% 30.06 in 6.2 mi ESE 21.9 mph - N/A   Scattered Clouds
8:30 PM 77.0 °F - 64.4 °F 65% 30.06 in 6.2 mi ESE 23.0 mph - N/A   Scattered Clouds
9:00 PM 76 °F - 63 °F 56% 30.07 in - ESE 20.7 mph - -  
9:00 PM 77.0 °F - 62.6 °F 61% 30.06 in 6.2 mi ESE 20.7 mph - N/A   Scattered Clouds
9:30 PM 77.0 °F - 64.4 °F 65% 30.06 in 6.2 mi ESE 19.6 mph - N/A   Scattered Clouds
10:00 PM 77.0 °F - 64.4 °F 65% 30.06 in 6.2 mi ESE 20.7 mph - N/A   Scattered Clouds
10:30 PM 77.0 °F - 66.2 °F 69% 30.06 in 6.2 mi ESE 20.7 mph - N/A   Mostly Cloudy
11:00 PM 77.0 °F - 68.0 °F 74% 30.06 in 6.2 mi East 21.9 mph - N/A   Scattered Clouds
11:30 PM 77.0 °F - 64.4 °F 65% 30.04 in 6.2 mi East 20.7 mph - N/A   Mostly Cloudy